Belgrade, MT

12:44 PM MDT on September 25, 2016 (GMT -0600)
Gallatin

Weather History for KBZN - November, 2012

Change the Weather History Date:

Tuesday, November 13, 2012

  Actual Average Record
Temperature  
Mean Temperature 27 °F 34 °F  
Max Temperature 34 °F 46 °F 72 °F (1999)
Min Temperature 20 °F 21 °F -33 °F (1959)
Degree Days  
Heating Degree Days 38 31  
Month to date heating degree days 404 367  
Since 1 July heating degree days 1337 1264  
Cooling Degree Days 0 0  
Month to date cooling degree days 0 0  
Year to date cooling degree days 284 368  
Moisture  
Dew Point 22 °F    
Average Humidity 81    
Maximum Humidity 92    
Minimum Humidity 69    
Precipitation  
Precipitation T in 0.03 in 0.17 in (1983)
Month to date precipitation 0.69 0.35  
Year to date precipitation 8.32 13.06  
Snow  
Snow T in 0.20 in 1.00 in (1991)
Month to date snowfall 10.5 1.7  
Since 1 July snowfall 10.5 3.9  
Since 1 September snowfall 10.5 3.9  
Snow Depth -    
Sea Level Pressure  
Sea Level Pressure 30.34 in    
Wind  
Wind Speed 3 mph (SE)    
Max Wind Speed 10 mph    
Max Gust Speed 10 mph    
Visibility 10 miles    
Events      
T = Trace of Precipitation, MM = Missing Value Source: NWS Daily Summary

Daily Weather History Graph

Daily Weather History Graph

Search for Another Location

Airport or City:

Trip Planner

Search our weather history database for the weather conditions in past years. The results will help you decide how hot, cold, wet, or windy it might be!

Date:

Astronomy

Nov. 13, 2012 Rise Set
Actual Time 7:22 AM MST 4:55 PM MST
Civil Twilight 6:50 AM MST 5:27 PM MST
Nautical Twilight 6:14 AM MST 6:03 PM MST
Astronomical Twilight 5:39 AM MST 6:38 PM MST
Moon 7:05 AM MST (11/13) 4:49 PM MST (11/13)
Length of Visible Light 10h 36m
Length of Day
9h 32m
Waning Crescent, 0% of the Moon is Illuminated
Nov 13
Waning Crescent
Nov 13
New
Nov 20
First Quarter
Nov 28
Full
Dec 6
Last Quarter

Hourly Weather History & Observations

Time (MST) Temp. Windchill Dew Point Humidity Pressure Visibility Wind Dir Wind Speed Gust Speed Precip Events Conditions
12:56 AM 23.0 °F 15.8 °F 19.0 °F 85% 30.35 in 8.0 mi ENE 5.8 mph - N/A   Overcast
1:56 AM 25.0 °F 16.3 °F 19.9 °F 81% 30.35 in 10.0 mi SE 8.1 mph - N/A   Overcast
2:56 AM 26.1 °F 19.4 °F 21.0 °F 81% 30.36 in 10.0 mi South 5.8 mph - N/A   Overcast
3:56 AM 26.1 °F 21.9 °F 21.0 °F 81% 30.37 in 10.0 mi North 3.5 mph - N/A   Overcast
4:56 AM 25.0 °F - 21.0 °F 85% 30.38 in 10.0 mi Calm Calm - N/A   Overcast
5:56 AM 27.0 °F 21.6 °F 23.0 °F 85% 30.38 in 10.0 mi SE 4.6 mph - N/A   Overcast
6:56 AM 25.0 °F 20.7 °F 19.9 °F 81% 30.38 in 10.0 mi South 3.5 mph - 0.00 in   Mostly Cloudy
7:56 AM 21.0 °F 16.2 °F 18.0 °F 88% 30.40 in 10.0 mi North 3.5 mph - N/A   Scattered Clouds
8:56 AM 21.9 °F 15.7 °F 19.0 °F 89% 30.41 in 10.0 mi SE 4.6 mph - N/A   Scattered Clouds
9:56 AM 26.1 °F 20.5 °F 21.0 °F 81% 30.39 in 10.0 mi South 4.6 mph - N/A   Mostly Cloudy
10:56 AM 28.0 °F - 23.0 °F 81% 30.39 in 9.0 mi Calm Calm - N/A   Overcast
11:56 AM 28.9 °F 23.9 °F 23.0 °F 78% 30.36 in 10.0 mi SSE 4.6 mph - N/A   Partly Cloudy
12:56 PM 32.0 °F - 24.1 °F 73% 30.34 in 10.0 mi Calm Calm - N/A   Clear
1:56 PM 34.0 °F - 24.1 °F 67% 30.31 in 10.0 mi Calm Calm - N/A   Clear
2:56 PM 30.9 °F 26.2 °F 24.1 °F 76% 30.31 in 9.0 mi WSW 4.6 mph - N/A   Clear
3:56 PM 34.0 °F 31.0 °F 24.1 °F 67% 30.30 in 10.0 mi North 3.5 mph - N/A   Partly Cloudy
4:56 PM 28.9 °F - 24.1 °F 82% 30.31 in 10.0 mi Calm Calm - N/A   Overcast
5:56 PM 30.9 °F 27.5 °F 25.0 °F 79% 30.29 in 9.0 mi SSE 3.5 mph - N/A   Overcast
6:56 PM 28.9 °F - 24.1 °F 82% 30.29 in 10.0 mi Calm Calm - N/A   Scattered Clouds
7:56 PM 30.0 °F - 23.0 °F 75% 30.30 in 9.0 mi Calm Calm - N/A   Mostly Cloudy
8:56 PM 28.9 °F - 24.1 °F 82% 30.29 in 10.0 mi Calm Calm - N/A   Overcast
9:56 PM 28.9 °F - 24.1 °F 82% 30.27 in 9.0 mi Calm Calm - N/A   Overcast
10:56 PM 28.0 °F 24.2 °F 24.1 °F 85% 30.27 in 10.0 mi SSE 3.5 mph - N/A   Mostly Cloudy
11:56 PM 27.0 °F 20.5 °F 23.0 °F 85% 30.26 in 6.0 mi SE 5.8 mph - N/A   Overcast